Torna al catalogo

ONEWEB-0362

AttivoComunicazioniPO
NORAD 49288·PAYLOAD·🇬🇧 United Kingdom

Lanciato Oct 14, 2021 da Vostochny Cosmodrome

Loading…

Prossimi Passaggi (prossime 24 ore)

TLE

AggiornatoSource: CelesTrak SupGP

Epoca: Sep 14, 2026, 19:35 UTC

1 49288C 21090K   26257.81613843 -.00000587  00000+0 -14671-2 0  2578
2 49288  87.9103 287.1213 0001722  91.2587  20.2495 13.19723719    15

Traccia ONEWEB-0362 in tempo reale con AllMySat

Download on the App Store